TimePST,TemperatureF,Dew PointF,Humidity,Sea Level PressureIn,VisibilityMPH,Wind Direction,Wind SpeedMPH,Gust SpeedMPH,PrecipitationIn,Events,Conditions,WindDirDegrees,DateUTC
12:53 AM,-0.0,-5.1,79,30.70,10.0,South,10.4,-,N/A,,Clear,190,2013-01-17 08:53:00
1:53 AM,-2.9,-8.0,79,30.70,10.0,South,12.7,-,N/A,,Clear,170,2013-01-17 09:53:00
2:53 AM,-0.9,-6.0,79,30.69,10.0,South,10.4,-,N/A,,Clear,190,2013-01-17 10:53:00
3:53 AM,-5.1,-9.0,83,30.71,10.0,SSE,11.5,-,N/A,,Clear,160,2013-01-17 11:53:00
4:53 AM,-5.1,-9.9,80,30.78,10.0,South,13.8,-,N/A,,Clear,180,2013-01-17 12:53:00
5:53 AM,-2.0,-7.1,79,30.78,10.0,South,11.5,-,N/A,,Clear,180,2013-01-17 13:53:00
6:53 AM,-7.1,-11.0,83,30.83,10.0,South,12.7,-,N/A,,Clear,180,2013-01-17 14:53:00
7:53 AM,-0.9,-6.0,79,30.84,10.0,South,11.5,-,N/A,,Clear,180,2013-01-17 15:53:00
8:53 AM,6.1,-0.9,73,30.82,10.0,SSE,6.9,-,N/A,,Clear,160,2013-01-17 16:53:00
9:53 AM,14.0,5.0,67,30.79,10.0,South,4.6,-,N/A,,Clear,170,2013-01-17 17:53:00
10:53 AM,19.0,7.0,59,30.73,10.0,SSW,3.5,-,N/A,,Clear,200,2013-01-17 18:53:00
11:53 AM,28.0,10.0,47,30.64,10.0,Calm,Calm,-,N/A,,Clear,0,2013-01-17 19:53:00
12:53 PM,28.0,10.9,49,30.63,10.0,Calm,Calm,-,N/A,,Clear,0,2013-01-17 20:53:00
1:53 PM,28.9,10.0,45,30.61,10.0,NNW,3.5,-,N/A,,Clear,330,2013-01-17 21:53:00
2:53 PM,30.0,10.9,45,30.59,10.0,Calm,Calm,-,N/A,,Clear,0,2013-01-17 22:53:00
3:53 PM,26.1,10.9,53,30.63,10.0,Calm,Calm,-,N/A,,Clear,0,2013-01-17 23:53:00
4:53 PM,12.9,6.1,74,30.71,10.0,Calm,Calm,-,N/A,,Clear,0,2013-01-18 00:53:00
5:53 PM,6.1,-0.0,76,30.74,10.0,South,10.4,-,N/A,,Clear,180,2013-01-18 01:53:00
6:53 PM,6.1,-0.0,76,30.78,10.0,SSE,9.2,-,N/A,,Clear,160,2013-01-18 02:53:00
7:53 PM,5.0,-0.9,76,30.75,10.0,South,11.5,-,N/A,,Clear,170,2013-01-18 03:53:00
8:53 PM,1.0,-4.0,79,30.73,10.0,South,11.5,-,N/A,,Clear,170,2013-01-18 04:53:00
9:53 PM,3.9,-2.0,76,30.68,10.0,South,13.8,-,N/A,,Clear,170,2013-01-18 05:53:00
10:53 PM,-0.9,-6.0,79,30.67,10.0,South,13.8,-,N/A,,Clear,170,2013-01-18 06:53:00
11:53 PM,1.9,-5.1,72,30.61,10.0,South,13.8,-,N/A,,Clear,170,2013-01-18 07:53:00